STARLETTE 1 07646U 75010A 26131.79977604 -.00000142 00000+0 -23318-6 0 9999 2 07646 49.8249 248.2245 0205609 302.8267 55.2976 13.82349936589507 LAGEOS 1 1 08820U 76039A 26131.82863994 .00000019 00000+0 00000+0 0 9993 2 08820 109.8044 166.8954 0044675 310.0683 240.7029 6.38664715910811 AJISAI (EGS) 1 16908U 86061A 26131.92717172 -.00000103 00000+0 -38692-4 0 9991 2 16908 50.0093 258.8947 0011405 88.7050 26.0205 12.44516178475870 COSMOS 1989 (ETALON 1) 1 19751U 89001C 26131.44933731 .00000008 00000+0 00000+0 0 9994 2 19751 64.9256 73.4513 0023349 217.6503 356.1837 2.13155979290584 COSMOS 2024 (ETALON 2) 1 20026U 89039C 26131.19769465 -.00000008 00000+0 00000+0 0 9996 2 20026 64.9579 311.8098 0020579 212.7611 319.1679 2.13204602287716 LAGEOS 2 1 22195U 92070B 26123.88481470 -.00000009 00000+0 00000+0 0 9999 2 22195 52.6619 294.6614 0137698 167.9216 346.2011 6.47293653792558 STELLA 1 22824U 93061B 26131.97567747 -.00000040 00000+0 19018-5 0 9990 2 22824 98.7742 196.0932 0006134 352.5396 182.6231 14.27469374699604 LARETS 1 27944U 03042F 26131.88853611 .00000021 00000+0 13666-4 0 9996 2 27944 98.4119 293.3401 0012976 144.9085 215.2974 14.63862539208050 LARES 1 38077U 12006A 26131.94730415 -.00000039 00000+0 -55257-5 0 9992 2 38077 69.4916 354.1488 0006462 70.7117 289.4608 12.54932007652526 LARES-2 1 53105U 22080A 26127.16150228 -.00000008 00000+0 00000+0 0 9996 2 53105 70.1704 319.3995 0005357 343.8104 16.2342 6.38965197 89040